ATLAS 5 CENTAUR DEB, 44040

Orbit data source: Space-Track

ATLAS 5 CENTAUR DEB, 44040 is space debris in HEO originally from a launch on Wed, 17 Sep 2014 UTC launched from the Air Force Eastern Test Range (AFETR). Debris objects in space refer to the collection of defunct objects orbiting the Earth. Examples of debris include non-operational satellites, rocket bodies, and fragments generated from explosions, collisions, or faulty payload assembly.

Loading next visibility...
Identifier
44040, 2014-055CA
Orbit
HEO
Country
Flag of USUS
Related business
Flag of USUnited Launch Alliance/Lockheed Martin (US)
Manufacturer
Unknown
Mission
Spacecraft
Bus & Motor
Unknown
Mass
Unknown
Launch date (UTC)
2014-09-17 (12 years ago)
Launch vehicle
Unknown
Launch site
Air Force Eastern Test Range (AFETR)
Object type
Payload
Rocket body
Debris
Shape & HBR
Unknown shape, 1.1 m
Radar Cross Section
Medium (>0.1 m² and <1 m²)

Expand to show TLE details & history
Last TLE update: 1 week ago

TLE from 1 week ago
0 ATLAS 5 CENTAUR DEB
1 44040U 14055CA  26230.29863212 -.00000151  00000-0  00000-0 0  9991
2 44040  20.4418 129.4001 4740407 191.9968 150.7912  1.88071338 53023
Epoch: 2026-08-18T07:10Z
TLE epoch observation values (Epoch: 2026-08-18T07:10:01.815Z)
Latitude
0.00004°
Longitude
55.24848°
Altitude
33,716.998 km
Speed
2.346 km/s
True Right ascension
08h 37m 41s
True Declination
0° 00' 00"
Sunlit
Object was in daylight at epoch
Visualization orbit readout
Latitude
Unknown
Longitude
Unknown
Altitude
Unknown
Speed
Unknown
Apparent Right ascension
Unknown
Apparent Declination
Unknown
Sunlit
N/A
Visualization observer readout
Local Sidereal Time
00:14:26
Azimuth
Unknown
Elevation
Unknown
Doppler factor
Unknown
Orbital elements
Apogee altitude
34,490.764 km
Perigee altitude
8,204.485 km
Semi-major axis
27,725.761 km
Eccentricity
0.47404
Inclination
20.4418°
RAAN
129.4001°
Arg. of periapsis
191.9968°
True anomaly
168.00873°
Mean anomaly
150.7912°
Eccentric anomaly
160.05579°
Mean motion
0.47013 °/min
Orbital period
765.75 mins
BSTAR
0
Loading maneuver chart data...
Computing Atmospheric mass density...

Documentation

Showing up to 5 results
|